GW6710 Weather Reports


Display with metric or nautical units.
time (UTC)temp
F
wind
direction
speed
MPH
gust
MPH
rain 1hr
in
rain 24hr
in
rain mn
in
humidity
%
barometer
mb
20260906224605 67 295 11.0 19.0 0.00 0.00 0.00 64 1014.4
20260906223049 67 298 13.0 17.0 0.00 0.00 0.00 64 1014.6
20260906221557 67 293 11.0 14.0 0.00 0.00 0.00 64 1014.6
20260906220046 67 315 7.0 14.0 0.00 0.00 0.00 64 1014.5
20260906214544 67 294 9.0 15.0 0.00 0.00 0.00 66 1014.4
20260906213050 66 302 4.0 12.0 0.00 0.00 0.00 67 1014.5
20260906211552 66 291 3.0 10.0 0.00 0.00 0.00 67 1014.6
20260906210048 66 352 6.0 9.0 0.00 0.00 0.00 69 1015.1
20260906204543 65 293 3.0 8.0 0.00 0.00 0.00 71 1015.2
20260906203050 65 290 4.0 10.0 0.00 0.00 0.00 72 1015.2
20260906201559 63 51 3.0 9.0 0.00 0.00 0.00 76 1015.4
20260906200045 62 15 6.0 10.0 0.00 0.00 0.00 75 1015.7
20260906194543 62 54 8.0 15.0 0.00 0.00 0.00 77 1015.7
20260906193048 61 54 13.0 17.0 0.00 0.00 0.00 78 1015.7
20260906191545 60 22 14.0 16.0 0.00 0.00 0.00 81 1015.9
20260906190047 59 46 12.0 18.0 0.00 0.00 0.00 83 1016.1
20260906184546 58 24 11.0 15.0 0.00 0.00 0.00 87 1016.3
20260906183111 59 41 12.0 16.0 0.00 0.00 0.00 88 1016.4
20260906181551 59 41 6.0 14.0 0.00 0.00 0.00 86 1016.6
20260906174556 58 323 11.0 13.0 0.00 0.00 0.00 84 1017.1
20260906173049 58 298 8.0 14.0 0.00 0.00 0.00 84 1017.3
20260906171546 57 294 13.0 20.0 0.00 0.00 0.00 84 1017.3
20260906170045 56 296 18.0 24.0 0.00 0.00 0.00 84 1017.2
20260906164544 56 303 18.0 23.0 0.00 0.00 0.00 84 1017.2
20260906163049 56 292 18.0 23.0 0.00 0.00 0.00 83 1017.4
20260906161549 57 288 16.0 21.0 0.00 0.00 0.00 82 1017.6
20260906160045 57 294 15.0 20.0 0.00 0.00 0.00 82 1017.9
20260906154552 58 301 13.0 18.0 0.00 0.00 0.00 82 1018.0
20260906153046 59 288 9.0 16.0 0.00 0.00 0.00 82 1017.7
20260906151546 59 318 1.0 4.0 0.00 0.00 0.00 83 1017.9
20260906150056 59 290 1.0 2.0 0.00 0.00 0.00 84 1018.4
20260906144554 59 290 1.0 2.0 0.00 0.00 0.00 83 1018.4
20260906143050 59 63 3.0 10.0 0.00 0.00 0.00 83 1018.3
20260906141549 59 67 10.0 13.0 0.00 0.00 0.00 83 1017.7
20260906140044 59 13 5.0 12.0 0.00 0.00 0.00 83 1018.2
20260906134545 58 36 8.0 12.0 0.00 0.00 0.00 83 1018.0
20260906133048 58 36 9.0 13.0 0.00 0.00 0.00 83 1018.0
20260906131546 58 34 8.0 11.0 0.00 0.00 0.00 83 1018.2
20260906130051 57 42 6.0 10.0 0.00 0.00 0.00 84 1018.0
20260906124550 57 36 10.0 13.0 0.00 0.00 0.00 84 1018.0
20260906123047 57 13 9.0 12.0 0.00 0.00 0.00 84 1018.3
20260906121545 56 36 9.0 14.0 0.00 0.00 0.00 85 1017.5
20260906120044 56 24 10.0 14.0 0.00 0.00 0.00 85 1017.5
20260906114557 56 28 9.0 12.0 0.00 0.00 0.00 85 1017.7
20260906113055 56 352 8.0 12.0 0.00 0.00 0.00 85 1017.6
20260906111545 56 32 8.0 14.0 0.00 0.00 0.00 84 1017.5
20260906110044 56 19 11.0 16.0 0.00 0.00 0.00 84 1017.6
20260906104548 56 352 11.0 14.0 0.00 0.00 0.00 84 1017.6
20260906103047 56 348 9.0 15.0 0.00 0.00 0.00 83 1017.8
20260906101544 56 9 10.0 16.0 0.00 0.00 0.00 83 1018.1
20260906100050 56 18 12.0 17.0 0.00 0.00 0.00 84 1018.0
20260906094547 55 18 13.0 17.0 0.00 0.00 0.00 84 1017.7
20260906093046 55 17 15.0 19.0 0.00 0.00 0.00 84 1017.5
20260906091546 55 352 11.0 15.0 0.00 0.00 0.00 83 1017.6
20260906090045 55 5 11.0 17.0 0.00 0.00 0.00 82 1017.8
20260906084547 56 31 11.0 15.0 0.00 0.00 0.00 81 1017.8
20260906083048 56 5 10.0 16.0 0.00 0.00 0.00 80 1018.0
20260906081551 56 352 9.0 14.0 0.00 0.00 0.00 80 1018.5
20260906080044 57 14 10.0 13.0 0.00 0.00 0.00 79 1018.7
20260906074557 57 23 10.0 13.0 0.00 0.00 0.00 78 1019.0
20260906073047 58 13 11.0 15.0 0.00 0.00 0.00 77 1019.1
20260906071545 58 22 13.0 19.0 0.00 0.00 0.00 76 1019.2
20260906070046 58 15 11.0 17.0 0.00 0.00 0.00 76 1019.1
20260906064548 58 17 14.0 19.0 0.00 0.00 0.00 75 1019.2
20260906063048 58 21 13.0 19.0 0.00 0.00 0.00 75 1019.2
20260906061545 59 14 15.0 20.0 0.00 0.00 0.00 74 1019.2
20260906060045 59 360 13.0 20.0 0.00 0.00 0.00 73 1019.2
20260906054548 59 14 15.0 20.0 0.00 0.00 0.00 72 1019.0
20260906053048 60 24 16.0 21.0 0.00 0.00 0.00 70 1019.1
20260906051558 60 24 15.0 19.0 0.00 0.00 0.00 69 1018.7
20260906050052 60 19 12.0 16.0 0.00 0.00 0.00 69 1018.7
20260906044551 60 5 11.0 16.0 0.00 0.00 0.00 69 1018.7
20260906043045 60 10 13.0 19.0 0.00 0.00 0.00 69 1018.5
20260906041546 60 35 12.0 17.0 0.00 0.00 0.00 68 1017.9
20260906040047 60 352 13.0 17.0 0.00 0.00 0.00 67 1017.9
20260906034547 60 352 15.0 21.0 0.00 0.00 0.00 66 1018.0
20260906033051 60 34 11.0 19.0 0.00 0.00 0.00 66 1018.0
20260906031555 61 38 12.0 19.0 0.00 0.00 0.00 65 1017.9
20260906030049 61 46 13.0 19.0 0.00 0.00 0.00 64 1017.8
20260906024546 62 52 17.0 23.0 0.00 0.00 0.00 63 1017.3
20260906023044 63 41 17.0 28.0 0.00 0.00 0.00 61 1016.9
20260906021545 64 46 17.0 28.0 0.00 0.00 0.00 58 1016.8
20260906020051 66 26 18.0 25.0 0.00 0.00 0.00 55 1016.7
20260906014543 68 28 18.0 27.0 0.00 0.00 0.00 50 1016.7
20260906013049 72 15 10.0 20.0 0.00 0.00 0.00 38 1016.4
20260906011550 73 45 14.0 21.0 0.00 0.00 0.00 36 1016.4
20260906010047 74 36 15.0 21.0 0.00 0.00 0.00 35 1016.3
20260906004541 75 51 17.0 22.0 0.00 0.00 0.00 34 1016.2
20260906003043 76 39 15.0 20.0 0.00 0.00 0.00 34 1016.3
20260906001547 76 72 13.0 17.0 0.00 0.00 0.00 33 1016.6
20260906000046 76 28 11.0 16.0 0.00 0.00 0.00 33 1016.7
20260905234544 77 29 11.0 17.0 0.00 0.00 0.00 32 1016.4
20260905233050 76 50 12.0 19.0 0.00 0.00 0.00 32 1016.3
20260905231546 76 67 10.0 18.0 0.00 0.00 0.00 32 1016.4
20260905230052 76 52 9.0 15.0 0.00 0.00 0.00 33 1016.5